| time (UTC) | temp C | wind direction | speed KPH | gust KPH | rain 1hr cm | rain 24hr cm | rain mn cm | humidity % | barometer mb |
| 20260901080939 | 26 | 33 | 1.6 | 3.2 | 0.00 | 0.00 | 0.00 | 28 | 1015.2 |
| 20260901080438 | 26 | 269 | 0.0 | 3.2 | 0.00 | 0.00 | 0.00 | 27 | 1015.4 |
| 20260901075938 | 27 | 236 | 3.2 | 4.8 | 0.00 | 0.00 | 0.00 | 26 | 1015.4 |
| 20260901075434 | 26 | 131 | 1.6 | 3.2 | 0.00 | 0.00 | 0.00 | 27 | 1015.2 |
| 20260901074928 | 26 | 166 | 3.2 | 3.2 | 0.00 | 0.00 | 0.00 | 27 | 1015.2 |
| 20260901074428 | 27 | 102 | 0.0 | 3.2 | 0.00 | 0.00 | 0.00 | 27 | 1015.3 |
| 20260901073923 | 27 | 100 | 0.0 | 3.2 | 0.00 | 0.00 | 0.00 | 27 | 1015.3 |
| 20260901073420 | 26 | 114 | 0.0 | 3.2 | 0.00 | 0.00 | 0.00 | 28 | 1015.2 |
| 20260901072914 | 26 | 13 | 1.6 | 3.2 | 0.00 | 0.00 | 0.00 | 28 | 1015.4 |
| 20260901072409 | 27 | 16 | 3.2 | 3.2 | 0.00 | 0.00 | 0.00 | 28 | 1015.3 |
| 20260901071904 | 27 | 101 | 0.0 | 1.6 | 0.00 | 0.00 | 0.00 | 27 | 1015.1 |
| 20260901071403 | 26 | 190 | 3.2 | 3.2 | 0.00 | 0.00 | 0.00 | 28 | 1015.2 |
| 20260901070902 | 26 | 258 | 0.0 | 1.6 | 0.00 | 0.00 | 0.00 | 30 | 1015.1 |
| 20260901070358 | 26 | 211 | 0.0 | 3.2 | 0.00 | 0.00 | 0.00 | 30 | 1015.0 |
| 20260901065856 | 27 | 69 | 0.0 | 1.6 | 0.00 | 0.00 | 0.00 | 28 | 1015.0 |
| 20260901065352 | 27 | 159 | 1.6 | 1.6 | 0.00 | 0.00 | 0.00 | 28 | 1015.1 |
| 20260901064847 | 27 | 72 | 0.0 | 3.2 | 0.00 | 0.00 | 0.00 | 27 | 1015.0 |
| 20260901064343 | 27 | 142 | 1.6 | 3.2 | 0.00 | 0.00 | 0.00 | 27 | 1015.0 |
| 20260901063841 | 27 | 242 | 0.0 | 3.2 | 0.00 | 0.00 | 0.00 | 27 | 1015.1 |
| 20260901063337 | 27 | 255 | 1.6 | 3.2 | 0.00 | 0.00 | 0.00 | 27 | 1015.2 |
| 20260901062832 | 27 | 183 | 0.0 | 3.2 | 0.00 | 0.00 | 0.00 | 27 | 1014.9 |
| 20260901062328 | 28 | 86 | 0.0 | 3.2 | 0.00 | 0.00 | 0.00 | 25 | 1015.1 |
| 20260901061824 | 28 | 33 | 1.6 | 3.2 | 0.00 | 0.00 | 0.00 | 25 | 1015.0 |
| 20260901061319 | 29 | 94 | 0.0 | 3.2 | 0.00 | 0.00 | 0.00 | 25 | 1015.0 |
| 20260901060814 | 30 | 132 | 3.2 | 4.8 | 0.00 | 0.00 | 0.00 | 25 | 1015.0 |
| 20260901060310 | 30 | 116 | 4.8 | 4.8 | 0.00 | 0.00 | 0.00 | 25 | 1014.8 |
| 20260901055804 | 29 | 166 | 0.0 | 4.8 | 0.00 | 0.00 | 0.00 | 26 | 1014.9 |
| 20260901055301 | 29 | 202 | 0.0 | 8.0 | 0.00 | 0.00 | 0.00 | 26 | 1014.9 |
| 20260901054758 | 29 | 240 | 1.6 | 6.4 | 0.00 | 0.00 | 0.00 | 25 | 1014.8 |
| 20260901054254 | 29 | 248 | 0.0 | 6.4 | 0.00 | 0.00 | 0.00 | 26 | 1014.9 |
| 20260901053749 | 29 | 165 | 3.2 | 4.8 | 0.00 | 0.00 | 0.00 | 27 | 1014.9 |
| 20260901053244 | 28 | 236 | 3.2 | 4.8 | 0.00 | 0.00 | 0.00 | 28 | 1015.0 |
| 20260901052739 | 29 | 136 | 0.0 | 3.2 | 0.00 | 0.00 | 0.00 | 27 | 1014.9 |
| 20260901052235 | 29 | 145 | 1.6 | 3.2 | 0.00 | 0.00 | 0.00 | 28 | 1015.0 |
| 20260901051733 | 29 | 218 | 0.0 | 3.2 | 0.00 | 0.00 | 0.00 | 29 | 1015.0 |
| 20260901051228 | 29 | 251 | 0.0 | 3.2 | 0.00 | 0.00 | 0.00 | 29 | 1015.0 |
| 20260901050724 | 28 | 174 | 3.2 | 6.4 | 0.00 | 0.00 | 0.00 | 29 | 1014.8 |
| 20260901050219 | 29 | 170 | 0.0 | 4.8 | 0.00 | 0.00 | 0.00 | 29 | 1014.8 |
| 20260901045714 | 30 | 340 | 1.6 | 3.2 | 0.00 | 0.00 | 0.00 | 29 | 1014.8 |
| 20260901045209 | 30 | 147 | 3.2 | 4.8 | 0.00 | 0.00 | 0.00 | 28 | 1014.6 |
| 20260901044704 | 30 | 198 | 1.6 | 4.8 | 0.00 | 0.00 | 0.00 | 30 | 1014.6 |
| 20260901044201 | 30 | 126 | 1.6 | 4.8 | 0.00 | 0.00 | 0.00 | 30 | 1014.6 |
| 20260901043656 | 30 | 113 | 0.0 | 6.4 | 0.00 | 0.00 | 0.00 | 30 | 1014.6 |
| 20260901043151 | 30 | 141 | 1.6 | 3.2 | 0.00 | 0.00 | 0.00 | 30 | 1014.6 |
| 20260901042650 | 30 | 70 | 0.0 | 3.2 | 0.00 | 0.00 | 0.00 | 30 | 1014.4 |
| 20260901042146 | 30 | 22 | 0.0 | 1.6 | 0.00 | 0.00 | 0.00 | 29 | 1014.6 |
| 20260901041642 | 31 | 167 | 3.2 | 4.8 | 0.00 | 0.00 | 0.00 | 28 | 1014.4 |
| 20260901041136 | 31 | 157 | 3.2 | 3.2 | 0.00 | 0.00 | 0.00 | 27 | 1014.4 |
| 20260901040635 | 32 | 214 | 3.2 | 8.0 | 0.00 | 0.00 | 0.00 | 25 | 1014.4 |
| 20260901040129 | 32 | 260 | 1.6 | 8.0 | 0.00 | 0.00 | 0.00 | 25 | 1014.3 |
| 20260901035628 | 32 | 93 | 1.6 | 8.0 | 0.00 | 0.00 | 0.00 | 25 | 1014.2 |
| 20260901035126 | 32 | 260 | 6.4 | 8.0 | 0.00 | 0.00 | 0.00 | 26 | 1014.0 |
| 20260901034621 | 32 | 279 | 6.4 | 19.3 | 0.00 | 0.00 | 0.00 | 25 | 1014.0 |
| 20260901034115 | 32 | 277 | 4.8 | 19.3 | 0.00 | 0.00 | 0.00 | 26 | 1013.9 |
| 20260901033614 | 32 | 262 | 9.7 | 17.7 | 0.00 | 0.00 | 0.00 | 26 | 1014.0 |
| 20260901033109 | 32 | 261 | 6.4 | 16.1 | 0.00 | 0.00 | 0.00 | 27 | 1013.7 |
| 20260901032607 | 32 | 314 | 9.7 | 14.5 | 0.00 | 0.00 | 0.00 | 26 | 1013.7 |
| 20260901032103 | 32 | 319 | 6.4 | 14.5 | 0.00 | 0.00 | 0.00 | 27 | 1013.6 |
| 20260901031558 | 32 | 339 | 4.8 | 4.8 | 0.00 | 0.00 | 0.00 | 27 | 1013.6 |
| 20260901031054 | 32 | 238 | 6.4 | 14.5 | 0.00 | 0.00 | 0.00 | 26 | 1013.6 |
| 20260901030553 | 32 | 281 | 8.0 | 14.5 | 0.00 | 0.00 | 0.00 | 26 | 1013.3 |
| 20260901030048 | 32 | 267 | 6.4 | 11.3 | 0.00 | 0.00 | 0.00 | 26 | 1013.5 |
| 20260901025542 | 33 | 253 | 9.7 | 11.3 | 0.00 | 0.00 | 0.00 | 26 | 1013.5 |
| 20260901025037 | 32 | 272 | 8.0 | 14.5 | 0.00 | 0.00 | 0.00 | 27 | 1013.2 |
| 20260901024532 | 32 | 257 | 17.7 | 27.4 | 0.00 | 0.00 | 0.00 | 27 | 1013.2 |
| 20260901024030 | 33 | 295 | 11.3 | 19.3 | 0.00 | 0.00 | 0.00 | 27 | 1012.9 |
| 20260901023524 | 32 | 263 | 9.7 | 24.1 | 0.00 | 0.00 | 0.00 | 28 | 1013.0 |
| 20260901023020 | 32 | 275 | 9.7 | 20.9 | 0.00 | 0.00 | 0.00 | 28 | 1012.7 |
| 20260901022515 | 33 | 253 | 12.9 | 27.4 | 0.00 | 0.00 | 0.00 | 28 | 1012.9 |
| 20260901022010 | 33 | 304 | 14.5 | 29.0 | 0.00 | 0.00 | 0.00 | 28 | 1012.7 |
| 20260901021505 | 33 | 297 | 20.9 | 22.5 | 0.00 | 0.00 | 0.00 | 29 | 1012.6 |
| 20260901021000 | 33 | 304 | 11.3 | 25.7 | 0.00 | 0.00 | 0.00 | 29 | 1012.5 |
| 20260901020450 | 33 | 323 | 27.4 | 32.2 | 0.00 | 0.00 | 0.00 | 28 | 1012.4 |
| 20260901015949 | 33 | 332 | 17.7 | 29.0 | 0.00 | 0.00 | 0.00 | 29 | 1012.3 |
| 20260901015446 | 33 | 329 | 11.3 | 27.4 | 0.00 | 0.00 | 0.00 | 28 | 1012.2 |
| 20260901014945 | 33 | 297 | 35.4 | 37.0 | 0.00 | 0.00 | 0.00 | 28 | 1012.1 |
| 20260901014441 | 33 | 305 | 27.4 | 33.8 | 0.00 | 0.00 | 0.00 | 28 | 1012.1 |
| 20260901013937 | 33 | 295 | 20.9 | 32.2 | 0.00 | 0.00 | 0.00 | 28 | 1012.2 |
| 20260901013432 | 33 | 262 | 17.7 | 27.4 | 0.00 | 0.00 | 0.00 | 28 | 1012.0 |
| 20260901012927 | 34 | 295 | 16.1 | 30.6 | 0.00 | 0.00 | 0.00 | 28 | 1011.7 |
| 20260901012422 | 34 | 308 | 16.1 | 29.0 | 0.00 | 0.00 | 0.00 | 28 | 1011.7 |
| 20260901011918 | 34 | 294 | 11.3 | 30.6 | 0.00 | 0.00 | 0.00 | 27 | 1011.6 |
| 20260901011414 | 35 | 276 | 17.7 | 29.0 | 0.00 | 0.00 | 0.00 | 27 | 1011.6 |
| 20260901010912 | 35 | 336 | 14.5 | 24.1 | 0.00 | 0.00 | 0.00 | 27 | 1011.6 |
| 20260901010407 | 35 | 293 | 17.7 | 30.6 | 0.00 | 0.00 | 0.00 | 26 | 1012.0 |
| 20260901005906 | 36 | 255 | 8.0 | 29.0 | 0.00 | 0.00 | 0.00 | 25 | 1011.7 |
| 20260901005401 | 36 | 257 | 20.9 | 29.0 | 0.00 | 0.00 | 0.00 | 25 | 1011.7 |
| 20260901004856 | 36 | 263 | 16.1 | 33.8 | 0.00 | 0.00 | 0.00 | 25 | 1011.7 |
| 20260901004355 | 36 | 264 | 14.5 | 41.8 | 0.00 | 0.00 | 0.00 | 25 | 1011.8 |
| 20260901003850 | 36 | 262 | 9.7 | 27.4 | 0.00 | 0.00 | 0.00 | 24 | 1012.0 |
| 20260901003345 | 37 | 274 | 16.1 | 27.4 | 0.00 | 0.00 | 0.00 | 25 | 1012.0 |
| 20260901002844 | 37 | 287 | 11.3 | 32.2 | 0.00 | 0.00 | 0.00 | 25 | 1011.8 |
| 20260901002343 | 37 | 251 | 14.5 | 25.7 | 0.00 | 0.00 | 0.00 | 23 | 1012.1 |
| 20260901001838 | 38 | 256 | 14.5 | 27.4 | 0.00 | 0.00 | 0.00 | 23 | 1012.0 |
| 20260901001333 | 37 | 230 | 16.1 | 22.5 | 0.00 | 0.00 | 0.00 | 21 | 1012.0 |
| 20260901000829 | 38 | 255 | 17.7 | 25.7 | 0.00 | 0.00 | 0.00 | 20 | 1012.1 |
| 20260901000324 | 38 | 268 | 9.7 | 20.9 | 0.00 | 0.00 | 0.00 | 20 | 1012.1 |
| 20260831235822 | 38 | 248 | 19.3 | 20.9 | 0.00 | 0.00 | 0.00 | 20 | 1012.1 |
| 20260831235319 | 38 | 260 | 11.3 | 27.4 | 0.00 | 0.00 | 0.00 | 22 | 1012.2 |
| 20260831234813 | 38 | 256 | 20.9 | 29.0 | 0.00 | 0.00 | 0.00 | 22 | 1012.2 |
| 20260831234313 | 38 | 232 | 16.1 | 33.8 | 0.00 | 0.00 | 0.00 | 22 | 1012.1 |
| 20260831233808 | 38 | 256 | 19.3 | 32.2 | 0.00 | 0.00 | 0.00 | 23 | 1012.2 |
| 20260831233303 | 38 | 243 | 24.1 | 29.0 | 0.00 | 0.00 | 0.00 | 22 | 1012.0 |
| 20260831232753 | 38 | 227 | 20.9 | 30.6 | 0.00 | 0.00 | 0.00 | 22 | 1012.2 |
| 20260831232250 | 38 | 241 | 25.7 | 37.0 | 0.00 | 0.00 | 0.00 | 22 | 1012.2 |
| 20260831231745 | 38 | 258 | 17.7 | 38.6 | 0.00 | 0.00 | 0.00 | 23 | 1012.2 |
| 20260831231241 | 38 | 240 | 25.7 | 35.4 | 0.00 | 0.00 | 0.00 | 21 | 1012.1 |
| 20260831230736 | 38 | 248 | 29.0 | 35.4 | 0.00 | 0.00 | 0.00 | 23 | 1012.2 |
| 20260831230231 | 38 | 247 | 24.1 | 32.2 | 0.00 | 0.00 | 0.00 | 22 | 1012.3 |
| 20260831225730 | 38 | 240 | 14.5 | 33.8 | 0.00 | 0.00 | 0.00 | 22 | 1012.5 |
| 20260831225226 | 38 | 260 | 22.5 | 32.2 | 0.00 | 0.00 | 0.00 | 23 | 1012.4 |
| 20260831224720 | 38 | 241 | 16.1 | 24.1 | 0.00 | 0.00 | 0.00 | 22 | 1012.3 |
| 20260831224216 | 38 | 237 | 11.3 | 32.2 | 0.00 | 0.00 | 0.00 | 23 | 1012.5 |
| 20260831223711 | 39 | 250 | 24.1 | 30.6 | 0.00 | 0.00 | 0.00 | 22 | 1012.3 |
| 20260831223208 | 40 | 255 | 14.5 | 24.1 | 0.00 | 0.00 | 0.00 | 22 | 1012.5 |
| 20260831222703 | 38 | 254 | 20.9 | 27.4 | 0.00 | 0.00 | 0.00 | 23 | 1012.6 |
| 20260831222158 | 38 | 250 | 22.5 | 32.2 | 0.00 | 0.00 | 0.00 | 22 | 1012.6 |
| 20260831221653 | 38 | 260 | 12.9 | 27.4 | 0.00 | 0.00 | 0.00 | 23 | 1012.7 |
| 20260831221149 | 40 | 260 | 17.7 | 27.4 | 0.00 | 0.00 | 0.00 | 22 | 1012.9 |
| 20260831220638 | 39 | 220 | 17.7 | 30.6 | 0.00 | 0.00 | 0.00 | 22 | 1012.9 |
| 20260831220133 | 40 | 257 | 17.7 | 35.4 | 0.00 | 0.00 | 0.00 | 22 | 1012.9 |
| 20260831215629 | 40 | 243 | 12.9 | 17.7 | 0.00 | 0.00 | 0.00 | 22 | 1012.9 |
| 20260831215124 | 40 | 327 | 6.4 | 11.3 | 0.00 | 0.00 | 0.00 | 21 | 1013.0 |
| 20260831214622 | 40 | 325 | 6.4 | 11.3 | 0.00 | 0.00 | 0.00 | 22 | 1013.1 |
| 20260831214118 | 40 | 301 | 9.7 | 19.3 | 0.00 | 0.00 | 0.00 | 22 | 1013.2 |
| 20260831213614 | 39 | 248 | 11.3 | 19.3 | 0.00 | 0.00 | 0.00 | 22 | 1013.3 |
| 20260831213109 | 39 | 245 | 12.9 | 16.1 | 0.00 | 0.00 | 0.00 | 22 | 1013.3 |
| 20260831212605 | 40 | 281 | 9.7 | 24.1 | 0.00 | 0.00 | 0.00 | 22 | 1013.5 |
| 20260831212101 | 40 | 236 | 16.1 | 25.7 | 0.00 | 0.00 | 0.00 | 22 | 1013.6 |
| 20260831211555 | 40 | 215 | 12.9 | 24.1 | 0.00 | 0.00 | 0.00 | 23 | 1013.4 |
| 20260831211054 | 40 | 235 | 8.0 | 20.9 | 0.00 | 0.00 | 0.00 | 22 | 1013.8 |
| 20260831210549 | 39 | 231 | 6.4 | 24.1 | 0.00 | 0.00 | 0.00 | 23 | 1013.7 |
| 20260831210046 | 40 | 220 | 14.5 | 32.2 | 0.00 | 0.00 | 0.00 | 22 | 1013.8 |
| 20260831205545 | 39 | 244 | 9.7 | 24.1 | 0.00 | 0.00 | 0.00 | 22 | 1013.8 |
| 20260831205041 | 40 | 219 | 12.9 | 24.1 | 0.00 | 0.00 | 0.00 | 21 | 1013.8 |
| 20260831204536 | 40 | 199 | 6.4 | 24.1 | 0.00 | 0.00 | 0.00 | 21 | 1014.0 |
| 20260831204034 | 40 | 228 | 14.5 | 24.1 | 0.00 | 0.00 | 0.00 | 21 | 1013.9 |
| 20260831203529 | 38 | 266 | 12.9 | 25.7 | 0.00 | 0.00 | 0.00 | 22 | 1014.0 |
| 20260831203028 | 39 | 240 | 11.3 | 27.4 | 0.00 | 0.00 | 0.00 | 21 | 1013.9 |
| 20260831202522 | 38 | 237 | 17.7 | 24.1 | 0.00 | 0.00 | 0.00 | 22 | 1014.0 |
| 20260831202021 | 39 | 240 | 14.5 | 24.1 | 0.00 | 0.00 | 0.00 | 21 | 1014.1 |
| 20260831201520 | 38 | 234 | 14.5 | 25.7 | 0.00 | 0.00 | 0.00 | 21 | 1014.0 |
| 20260831201016 | 39 | 218 | 24.1 | 29.0 | 0.00 | 0.00 | 0.00 | 21 | 1014.1 |
| 20260831200512 | 39 | 224 | 11.3 | 20.9 | 0.00 | 0.00 | 0.00 | 21 | 1014.3 |
| 20260831200006 | 38 | 229 | 11.3 | 30.6 | 0.00 | 0.00 | 0.00 | 22 | 1014.3 |
| 20260831195501 | 39 | 225 | 9.7 | 24.1 | 0.00 | 0.00 | 0.00 | 22 | 1014.3 |
| 20260831195000 | 38 | 236 | 8.0 | 27.4 | 0.00 | 0.00 | 0.00 | 22 | 1014.3 |
| 20260831194456 | 38 | 236 | 9.7 | 25.7 | 0.00 | 0.00 | 0.00 | 22 | 1014.3 |
| 20260831193951 | 39 | 233 | 6.4 | 22.5 | 0.00 | 0.00 | 0.00 | 21 | 1014.4 |
| 20260831193446 | 39 | 164 | 12.9 | 27.4 | 0.00 | 0.00 | 0.00 | 21 | 1014.4 |
| 20260831192941 | 39 | 229 | 12.9 | 30.6 | 0.00 | 0.00 | 0.00 | 22 | 1014.6 |
| 20260831192436 | 38 | 203 | 9.7 | 19.3 | 0.00 | 0.00 | 0.00 | 22 | 1014.7 |
| 20260831191931 | 39 | 188 | 8.0 | 14.5 | 0.00 | 0.00 | 0.00 | 21 | 1014.5 |
| 20260831191427 | 38 | 184 | 9.7 | 20.9 | 0.00 | 0.00 | 0.00 | 21 | 1014.7 |
| 20260831190923 | 38 | 199 | 9.7 | 16.1 | 0.00 | 0.00 | 0.00 | 21 | 1014.6 |
| 20260831190418 | 38 | 183 | 12.9 | 20.9 | 0.00 | 0.00 | 0.00 | 21 | 1014.8 |
| 20260831185917 | 38 | 226 | 9.7 | 12.9 | 0.00 | 0.00 | 0.00 | 21 | 1014.7 |
| 20260831185413 | 38 | 234 | 6.4 | 19.3 | 0.00 | 0.00 | 0.00 | 21 | 1014.7 |
| 20260831184913 | 38 | 245 | 8.0 | 14.5 | 0.00 | 0.00 | 0.00 | 21 | 1014.8 |
| 20260831184408 | 38 | 228 | 4.8 | 9.7 | 0.00 | 0.00 | 0.00 | 21 | 1015.1 |
| 20260831183903 | 37 | 76 | 3.2 | 12.9 | 0.00 | 0.00 | 0.00 | 21 | 1015.1 |
| 20260831183402 | 37 | 126 | 0.0 | 12.9 | 0.00 | 0.00 | 0.00 | 21 | 1015.0 |
| 20260831182901 | 38 | 21 | 3.2 | 9.7 | 0.00 | 0.00 | 0.00 | 20 | 1015.1 |
| 20260831182357 | 38 | 328 | 8.0 | 8.0 | 0.00 | 0.00 | 0.00 | 21 | 1015.0 |
| 20260831181852 | 37 | 331 | 9.7 | 9.7 | 0.00 | 0.00 | 0.00 | 21 | 1015.2 |
| 20260831181348 | 37 | 75 | 3.2 | 6.4 | 0.00 | 0.00 | 0.00 | 22 | 1015.1 |
| 20260831180842 | 38 | 337 | 1.6 | 4.8 | 0.00 | 0.00 | 0.00 | 21 | 1015.3 |
| 20260831180337 | 37 | 110 | 1.6 | 3.2 | 0.00 | 0.00 | 0.00 | 21 | 1015.3 |
| 20260831175835 | 37 | 68 | 4.8 | 6.4 | 0.00 | 0.00 | 0.00 | 20 | 1015.3 |
| 20260831175332 | 36 | 328 | 3.2 | 6.4 | 0.00 | 0.00 | 0.00 | 21 | 1015.4 |
| 20260831174828 | 37 | 58 | 3.2 | 4.8 | 0.00 | 0.00 | 0.00 | 20 | 1015.4 |
| 20260831174323 | 37 | 349 | 0.0 | 4.8 | 0.00 | 0.00 | 0.00 | 20 | 1015.5 |
| 20260831173822 | 37 | 84 | 6.4 | 6.4 | 0.00 | 0.00 | 0.00 | 19 | 1015.6 |
| 20260831173316 | 36 | 112 | 3.2 | 6.4 | 0.00 | 0.00 | 0.00 | 19 | 1015.4 |
| 20260831172812 | 36 | 98 | 8.0 | 8.0 | 0.00 | 0.00 | 0.00 | 18 | 1015.5 |
| 20260831172307 | 37 | 58 | 1.6 | 4.8 | 0.00 | 0.00 | 0.00 | 18 | 1015.5 |
| 20260831171802 | 35 | 40 | 3.2 | 6.4 | 0.00 | 0.00 | 0.00 | 19 | 1015.4 |
| 20260831171259 | 36 | 63 | 4.8 | 6.4 | 0.00 | 0.00 | 0.00 | 19 | 1015.6 |
| 20260831170755 | 36 | 40 | 3.2 | 4.8 | 0.00 | 0.00 | 0.00 | 19 | 1015.6 |
| 20260831170251 | 36 | 87 | 6.4 | 6.4 | 0.00 | 0.00 | 0.00 | 18 | 1015.5 |
| 20260831165748 | 36 | 226 | 1.6 | 3.2 | 0.00 | 0.00 | 0.00 | 18 | 1015.4 |
| 20260831165244 | 36 | 53 | 4.8 | 4.8 | 0.00 | 0.00 | 0.00 | 17 | 1015.3 |
| 20260831164739 | 35 | 290 | 0.0 | 8.0 | 0.00 | 0.00 | 0.00 | 18 | 1015.6 |
| 20260831164235 | 35 | 280 | 4.8 | 8.0 | 0.00 | 0.00 | 0.00 | 18 | 1015.5 |
| 20260831163730 | 36 | 195 | 4.8 | 4.8 | 0.00 | 0.00 | 0.00 | 17 | 1015.4 |
| 20260831163226 | 36 | 253 | 0.0 | 1.6 | 0.00 | 0.00 | 0.00 | 16 | 1015.3 |
| 20260831162724 | 35 | 65 | 1.6 | 6.4 | 0.00 | 0.00 | 0.00 | 17 | 1015.4 |
| 20260831162224 | 35 | 35 | 0.0 | 3.2 | 0.00 | 0.00 | 0.00 | 17 | 1015.4 |
| 20260831161719 | 35 | 94 | 3.2 | 6.4 | 0.00 | 0.00 | 0.00 | 16 | 1015.3 |
| 20260831161215 | 35 | 91 | 3.2 | 6.4 | 0.00 | 0.00 | 0.00 | 17 | 1015.5 |
| 20260831160714 | 35 | 230 | 0.0 | 3.2 | 0.00 | 0.00 | 0.00 | 17 | 1015.5 |
| 20260831160204 | 35 | 125 | 3.2 | 3.2 | 0.00 | 0.00 | 0.00 | 17 | 1015.4 |
| 20260831155703 | 33 | 300 | 0.0 | 4.8 | 0.00 | 0.00 | 0.00 | 17 | 1015.4 |
| 20260831155159 | 35 | 102 | 0.0 | 4.8 | 0.00 | 0.00 | 0.00 | 16 | 1015.5 |
| 20260831154655 | 35 | 157 | 3.2 | 3.2 | 0.00 | 0.00 | 0.00 | 16 | 1015.3 |
| 20260831154150 | 34 | 281 | 0.0 | 3.2 | 0.00 | 0.00 | 0.00 | 16 | 1015.3 |
| 20260831153649 | 33 | 199 | 0.0 | 3.2 | 0.00 | 0.00 | 0.00 | 17 | 1015.4 |
| 20260831153146 | 34 | 150 | 0.0 | 3.2 | 0.00 | 0.00 | 0.00 | 16 | 1015.4 |
| 20260831152641 | 34 | 68 | 0.0 | 3.2 | 0.00 | 0.00 | 0.00 | 17 | 1015.2 |
| 20260831152137 | 33 | 297 | 0.0 | 4.8 | 0.00 | 0.00 | 0.00 | 17 | 1015.3 |
| 20260831151637 | 33 | 89 | 1.6 | 3.2 | 0.00 | 0.00 | 0.00 | 17 | 1015.2 |
| 20260831151131 | 33 | 14 | 0.0 | 3.2 | 0.00 | 0.00 | 0.00 | 17 | 1015.3 |
| 20260831150626 | 32 | 68 | 1.6 | 3.2 | 0.00 | 0.00 | 0.00 | 18 | 1015.5 |
| 20260831150121 | 32 | 221 | 0.0 | 3.2 | 0.00 | 0.00 | 0.00 | 18 | 1015.2 |
| 20260831145615 | 31 | 116 | 1.6 | 3.2 | 0.00 | 0.00 | 0.00 | 19 | 1015.3 |
| 20260831145112 | 31 | 185 | 0.0 | 3.2 | 0.00 | 0.00 | 0.00 | 19 | 1015.4 |
| 20260831144608 | 31 | 216 | 0.0 | 3.2 | 0.00 | 0.00 | 0.00 | 20 | 1015.2 |
| 20260831144103 | 30 | 256 | 1.6 | 3.2 | 0.00 | 0.00 | 0.00 | 20 | 1015.1 |
| 20260831143602 | 30 | 256 | 3.2 | 3.2 | 0.00 | 0.00 | 0.00 | 21 | 1015.3 |
| 20260831143058 | 29 | 358 | 1.6 | 1.6 | 0.00 | 0.00 | 0.00 | 22 | 1015.0 |
| 20260831142554 | 28 | 89 | 0.0 | 3.2 | 0.00 | 0.00 | 0.00 | 22 | 1015.0 |
| 20260831142050 | 27 | 269 | 0.0 | 3.2 | 0.00 | 0.00 | 0.00 | 23 | 1014.7 |
| 20260831141548 | 27 | 92 | 1.6 | 3.2 | 0.00 | 0.00 | 0.00 | 24 | 1014.9 |
| 20260831141044 | 26 | 323 | 3.2 | 3.2 | 0.00 | 0.00 | 0.00 | 24 | 1014.7 |
| 20260831140543 | 26 | 282 | 1.6 | 3.2 | 0.00 | 0.00 | 0.00 | 24 | 1014.8 |
| 20260831140037 | 26 | 298 | 0.0 | 1.6 | 0.00 | 0.00 | 0.00 | 24 | 1014.7 |
| 20260831135535 | 25 | 259 | 0.0 | 3.2 | 0.00 | 0.00 | 0.00 | 24 | 1014.6 |
| 20260831135030 | 26 | 230 | 1.6 | 3.2 | 0.00 | 0.00 | 0.00 | 24 | 1014.4 |
| 20260831134526 | 26 | 301 | 0.0 | 1.6 | 0.00 | 0.00 | 0.00 | 25 | 1014.4 |
| 20260831134021 | 25 | 278 | 0.0 | 1.6 | 0.00 | 0.00 | 0.00 | 24 | 1014.1 |
| 20260831133516 | 25 | 245 | 0.0 | 3.2 | 0.00 | 0.00 | 0.00 | 25 | 1014.3 |
| 20260831133011 | 25 | 319 | 1.6 | 3.2 | 0.00 | 0.00 | 0.00 | 24 | 1014.3 |
| 20260831132507 | 25 | 102 | 0.0 | 3.2 | 0.00 | 0.00 | 0.00 | 25 | 1014.2 |
| 20260831132005 | 25 | 151 | 1.6 | 4.8 | 0.00 | 0.00 | 0.00 | 24 | 1014.2 |
| 20260831131500 | 25 | 179 | 3.2 | 4.8 | 0.00 | 0.00 | 0.00 | 24 | 1014.1 |
| 20260831130956 | 25 | 209 | 3.2 | 4.8 | 0.00 | 0.00 | 0.00 | 25 | 1014.2 |
| 20260831130451 | 25 | 96 | 0.0 | 3.2 | 0.00 | 0.00 | 0.00 | 25 | 1014.1 |
| 20260831125950 | 25 | 253 | 0.0 | 3.2 | 0.00 | 0.00 | 0.00 | 24 | 1014.2 |
| 20260831125445 | 25 | 170 | 1.6 | 3.2 | 0.00 | 0.00 | 0.00 | 25 | 1014.1 |
| 20260831124941 | 25 | 200 | 1.6 | 3.2 | 0.00 | 0.00 | 0.00 | 25 | 1014.1 |
| 20260831124437 | 25 | 205 | 1.6 | 3.2 | 0.00 | 0.00 | 0.00 | 25 | 1014.0 |
| 20260831123933 | 25 | 168 | 0.0 | 3.2 | 0.00 | 0.00 | 0.00 | 25 | 1013.9 |
| 20260831123431 | 25 | 251 | 3.2 | 4.8 | 0.00 | 0.00 | 0.00 | 25 | 1014.0 |
| 20260831122926 | 26 | 237 | 0.0 | 3.2 | 0.00 | 0.00 | 0.00 | 24 | 1013.8 |
| 20260831122421 | 26 | 172 | 1.6 | 1.6 | 0.00 | 0.00 | 0.00 | 24 | 1013.9 |
| 20260831121916 | 26 | 170 | 1.6 | 3.2 | 0.00 | 0.00 | 0.00 | 25 | 1013.7 |
| 20260831121412 | 26 | 233 | 0.0 | 3.2 | 0.00 | 0.00 | 0.00 | 25 | 1013.7 |
| 20260831120908 | 26 | 181 | 3.2 | 6.4 | 0.00 | 0.00 | 0.00 | 24 | 1014.0 |
| 20260831120402 | 25 | 211 | 1.6 | 4.8 | 0.00 | 0.00 | 0.00 | 25 | 1013.6 |
| 20260831115856 | 25 | 165 | 0.0 | 3.2 | 0.00 | 0.00 | 0.00 | 25 | 1013.7 |
| 20260831115353 | 26 | 195 | 3.2 | 4.8 | 0.00 | 0.00 | 0.00 | 25 | 1013.7 |
| 20260831114852 | 26 | 257 | 1.6 | 3.2 | 0.00 | 0.00 | 0.00 | 25 | 1013.8 |
| 20260831114351 | 27 | 211 | 6.4 | 6.4 | 0.00 | 0.00 | 0.00 | 24 | 1013.9 |
| 20260831113848 | 27 | 119 | 0.0 | 3.2 | 0.00 | 0.00 | 0.00 | 24 | 1013.7 |
| 20260831113347 | 27 | 149 | 3.2 | 3.2 | 0.00 | 0.00 | 0.00 | 24 | 1013.6 |
| 20260831112841 | 26 | 228 | 1.6 | 3.2 | 0.00 | 0.00 | 0.00 | 25 | 1013.7 |
| 20260831112336 | 26 | 217 | 0.0 | 3.2 | 0.00 | 0.00 | 0.00 | 25 | 1013.7 |
| 20260831111831 | 26 | 49 | 0.0 | 3.2 | 0.00 | 0.00 | 0.00 | 25 | 1013.7 |
| 20260831111323 | 27 | 249 | 0.0 | 1.6 | 0.00 | 0.00 | 0.00 | 25 | 1013.7 |
| 20260831110818 | 27 | 135 | 1.6 | 3.2 | 0.00 | 0.00 | 0.00 | 24 | 1013.7 |
| 20260831110318 | 27 | 130 | 0.0 | 3.2 | 0.00 | 0.00 | 0.00 | 24 | 1013.7 |
| 20260831105811 | 27 | 309 | 0.0 | 1.6 | 0.00 | 0.00 | 0.00 | 24 | 1013.7 |
| 20260831105307 | 28 | 122 | 0.0 | 3.2 | 0.00 | 0.00 | 0.00 | 23 | 1013.7 |
| 20260831104807 | 27 | 179 | 1.6 | 3.2 | 0.00 | 0.00 | 0.00 | 24 | 1013.6 |
| 20260831104303 | 28 | 78 | 0.0 | 3.2 | 0.00 | 0.00 | 0.00 | 24 | 1013.5 |
| 20260831103758 | 27 | 102 | 3.2 | 4.8 | 0.00 | 0.00 | 0.00 | 24 | 1013.5 |
| 20260831103254 | 27 | 195 | 0.0 | 1.6 | 0.00 | 0.00 | 0.00 | 25 | 1013.7 |
| 20260831102753 | 28 | 70 | 1.6 | 3.2 | 0.00 | 0.00 | 0.00 | 24 | 1013.4 |
| 20260831102248 | 28 | 207 | 0.0 | 3.2 | 0.00 | 0.00 | 0.00 | 24 | 1013.2 |
| 20260831101744 | 28 | 88 | 1.6 | 4.8 | 0.00 | 0.00 | 0.00 | 24 | 1013.5 |
| 20260831101239 | 29 | 191 | 0.0 | 3.2 | 0.00 | 0.00 | 0.00 | 22 | 1013.3 |
| 20260831100735 | 28 | 169 | 1.6 | 4.8 | 0.00 | 0.00 | 0.00 | 21 | 1013.4 |
| 20260831100231 | 28 | 50 | 0.0 | 3.2 | 0.00 | 0.00 | 0.00 | 23 | 1013.4 |
| 20260831095729 | 28 | 205 | 0.0 | 3.2 | 0.00 | 0.00 | 0.00 | 24 | 1013.6 |
| 20260831095225 | 28 | 88 | 0.0 | 1.6 | 0.00 | 0.00 | 0.00 | 23 | 1013.3 |
| 20260831094725 | 28 | 168 | 3.2 | 4.8 | 0.00 | 0.00 | 0.00 | 24 | 1013.5 |
| 20260831094221 | 28 | 210 | 1.6 | 3.2 | 0.00 | 0.00 | 0.00 | 24 | 1013.5 |
| 20260831093717 | 30 | 342 | 1.6 | 6.4 | 0.00 | 0.00 | 0.00 | 21 | 1013.5 |
| 20260831093212 | 30 | 177 | 1.6 | 3.2 | 0.00 | 0.00 | 0.00 | 22 | 1013.5 |
| 20260831092708 | 30 | 106 | 0.0 | 3.2 | 0.00 | 0.00 | 0.00 | 20 | 1013.3 |
| 20260831092203 | 31 | 99 | 1.6 | 3.2 | 0.00 | 0.00 | 0.00 | 21 | 1013.2 |
| 20260831091703 | 30 | 185 | 0.0 | 1.6 | 0.00 | 0.00 | 0.00 | 23 | 1013.3 |
| 20260831091159 | 28 | 355 | 3.2 | 3.2 | 0.00 | 0.00 | 0.00 | 24 | 1013.4 |
| 20260831090659 | 29 | 289 | 1.6 | 3.2 | 0.00 | 0.00 | 0.00 | 23 | 1013.3 |
| 20260831090155 | 30 | 76 | 3.2 | 3.2 | 0.00 | 0.00 | 0.00 | 22 | 1013.3 |
| 20260831085651 | 30 | 64 | 3.2 | 3.2 | 0.00 | 0.00 | 0.00 | 22 | 1013.5 |
| 20260831085147 | 30 | 147 | 0.0 | 3.2 | 0.00 | 0.00 | 0.00 | 21 | 1013.6 |
| 20260831084642 | 30 | 266 | 0.0 | 3.2 | 0.00 | 0.00 | 0.00 | 23 | 1013.6 |
| 20260831084138 | 30 | 154 | 3.2 | 3.2 | 0.00 | 0.00 | 0.00 | 22 | 1013.5 |
| 20260831083634 | 29 | 63 | 0.0 | 3.2 | 0.00 | 0.00 | 0.00 | 24 | 1013.4 |
| 20260831083129 | 29 | 80 | 3.2 | 4.8 | 0.00 | 0.00 | 0.00 | 24 | 1013.4 |
| 20260831082627 | 29 | 299 | 0.0 | 4.8 | 0.00 | 0.00 | 0.00 | 24 | 1013.6 |
| 20260831082123 | 28 | 79 | 1.6 | 3.2 | 0.00 | 0.00 | 0.00 | 24 | 1013.5 |
| 20260831081618 | 29 | 63 | 0.0 | 3.2 | 0.00 | 0.00 | 0.00 | 24 | 1013.8 |